User: anonymous   Login
Location: Vancouver
(49.2500°N, 123.1330°W)
Time: 11:15:57
(UTC-07:00)
Language:

Cosmos 1340 Rocket - Orbit

View from above orbital plane
View from above orbital plane
View from above satellite
View from above satellite

Ground track
Ground track

The orbit data is extracted from the following two-line orbital elements,

1 13068U 82013B   15117.85793586  .00002435  00000-0  16605-3 0  9993
2 13068 081.2069 033.7807 0022685 016.8761 343.3212 15.05694033805867
Epoch (UTC): 27 April 2015 20:35:25
Eccentricity: 0.0022685
inclination: 81.2069°
perigee height: 533 km
apogee height: 565 km
right ascension of ascending node: 33.7807°
argument of perigee: 16.8761°
revolutions per day: 15.05694033
mean anomaly at epoch: 343.3212°
orbit number at epoch: 80586

The dashed part of the orbit path shows where the satellite is in the earth's shadow,  

DLR